Location: Henham
(51.9333°N, 0.2500°E)
Time: 12:14:21
(UTC+00:00)

CZ-4 R/B - Pass Details

Date: 23 October 2019
Orbit: 529 x 601 km, 97.8° (Epoch: 20 November)

Event Time Altitude Azimuth Distance (km) Brightness Sun altitude
Rises 18:21:01 0° 174° (S) 2,824 4.9 -14.8°
Reaches altitude 10° 18:23:11 10° 178° (S) 1,933 4.1 -15.2°
Maximum altitude 18:27:21 61° 258° (WSW) 688 2.1 -15.8°
Drops below altitude 10° 18:31:34 10° 340° (NNW) 1,957 4.4 -16.4°
Sets 18:33:47 0° 344° (NNW) 2,864 5.2 -16.8°
